Temperature
22 23 24 24 28 28 27 28 28 28 28 27 27 27 27 27 26 25 20 20 19 19 19 19 19 19 19 19 18 18 18 18 18 18 18 18 18 18 18 18 18 18 18 18 18 18 18 18 18
22 23 23 26 29 28 27 28 28 28 27 26 26 27 27 26 23 21 19 19 19 19 19 19 19 19 19 19 18 18 18 18 18 18 18 18 18 18 18 18 18 18 18 18 18 18 18 18 18
22 23 25 29 28 28 27 28 28 28 26 27 27 26 26 25 22 21 20 19 19 19 18 18 19 19 19 19 18 18 18 18 18 18 18 18 18 18 18 18 18 18 18 18 18 18 18 18 18
22 24 26 29 28 28 28 29 28 28 27 26 27 27 25 22 22 21 20 19 19 19 18 18 19 19 19 19 18 18 18 18 18 18 18 18 18 18 17 17 18 18 18 18 18 17 17 17 17
22 26 28 28 28 28 29 29 28 28 28 27 27 27 25 22 21 20 19 19 19 19 18 18 19 19 19 18 18 18 18 18 18 18 18 18 18 17 17 17 18 18 18 18 18 17 17 17 17
25 28 28 28 28 28 29 28 28 28 28 27 26 27 25 21 20 20 19 19 19 18 18 18 19 19 19 18 18 18 18 18 18 18 18 18 18 17 17 17 18 18 18 18 18 17 17 17 17
26 28 28 28 27 28 29 28 29 29 28 28 27 27 25 22 21 20 20 19 19 19 18 18 18 18 18 18 18 18 18 18 18 18 18 18 17 17 17 17 18 18 18 18 17 17 17 17 17
24 28 28 28 27 28 29 28 28 28 28 26 26 27 26 23 21 20 20 20 19 19 18 18 18 18 18 18 18 18 18 18 18 18 18 17 17 17 17 17 18 18 18 18 17 17 17 17 17
23 27 28 28 28 28 28 28 28 27 27 26 26 26 25 23 21 20 20 20 19 19 19 19 18 18 18 18 18 18 18 18 18 18 18 17 17 16 16 16 17 18 17 17 17 16 16 17 17
25 27 28 28 28 29 28 28 28 28 28 27 26 24 23 22 22 21 21 21 20 19 19 19 19 18 18 17 18 18 18 18 17 17 17 17 16 16 16 17 17 17 17 17 17 17 16 16 16
26 27 27 27 27 28 28 28 28 28 28 28 27 26 23 23 22 22 22 22 21 20 20 19 19 18 18 18 18 18 18 18 17 17 17 17 16 16 16 16 16 16 16 16 16 16 16 16 16
26 27 27 27 27 27 28 28 28 28 28 28 27 27 25 24 23 23 23 22 21 21 20 20 19 19 18 18 17 17 17 17 17 17 17 17 16 16 16 16 16 16 16 16 16 16 16 16 17
27 27 26 26 26 27 27 28 28 28 27 27 27 26 25 25 25 24 23 23 22 21 20 20 19 19 19 18 18 17 17 17 17 17 17 16 16 16 16 16 16 16 16 16 16 16 16 16 16
26 26 26 26 27 27 28 28 27 28 27 27 27 26 26 26 25 25 24 23 22 22 21 20 20 19 19 18 18 18 17 17 17 17 16 16 16 16 16 16 16 16 16 16 16 17 16 16 16
25 26 27 27 27 28 27 28 28 28 27 27 27 27 27 26 25 25 25 24 23 22 21 20 20 20 19 19 18 18 18 17 17 17 16 16 16 16 16 16 16 16 16 16 16 16 16 16 15
26 26 26 27 27 27 27 27 29 27 27 28 28 27 26 26 25 25 24 23 23 22 21 21 20 20 19 19 19 18 18 17 17 17 17 16 16 16 16 16 16 16 16 16 16 16 16 16 16
26 26 27 27 27 27 27 27 28 27 27 27 27 27 27 26 25 25 23 23 22 22 21 21 20 20 20 19 19 18 18 18 17 17 17 16 16 16 16 16 16 16 16 16 16 16 16 16 15
26 26 26 27 27 27 26 27 28 28 27 27 28 27 27 27 26 24 23 23 23 22 21 21 20 19 19 19 19 18 18 17 17 17 17 16 16 16 16 16 16 16 16 16 16 16 15 15 15
24 25 25 26 26 26 26 27 27 28 27 27 28 28 28 27 25 23 23 23 23 22 21 21 20 19 19 19 18 18 18 18 17 17 17 17 17 16 16 16 16 16 16 16 16 15 15 15 15
23 23 24 25 25 25 26 26 27 28 28 28 28 28 27 26 25 23 22 22 22 22 21 21 20 19 19 18 18 18 18 18 17 17 17 17 17 16 16 16 16 16 16 16 16 15 15 15 15
21 22 22 22 24 25 25 25 27 28 28 27 26 26 26 25 24 23 22 22 22 21 21 21 20 20 19 18 18 18 18 18 18 17 17 17 17 16 16 16 16 16 16 16 16 16 16 15 15
20 21 21 21 22 23 24 24 26 27 27 28 27 26 24 23 23 22 22 21 21 20 21 20 20 19 19 18 17 17 17 17 17 17 17 17 17 16 16 16 16 16 16 16 16 16 16 16 15
20 21 21 20 21 22 24 24 26 27 26 27 27 25 24 23 23 22 21 21 20 20 20 19 19 19 18 17 17 17 17 17 16 16 16 16 16 16 16 16 16 16 16 16 16 16 15 15 15
21 20 20 21 22 22 24 24 25 27 26 26 26 24 23 22 22 22 21 21 20 20 20 20 19 19 18 17 17 16 16 16 16 16 16 16 16 16 16 16 16 16 16 15 15 15 15 15 15
23 22 21 21 22 23 24 24 25 26 26 25 25 24 23 22 22 22 21 20 20 20 19 19 19 18 18 17 17 16 16 16 15 15 15 15 16 16 16 16 16 15 15 15 15 15 15 15 15
23 23 22 21 22 23 23 24 25 26 25 24 24 23 23 22 22 21 21 21 20 19 19 19 18 18 17 17 16 16 16 15 15 15 15 15 15 15 15 15 15 15 15 15 14 14 14 15 15
24 23 24 23 23 22 24 24 26 26 26 25 24 23 23 23 22 22 21 21 20 19 19 19 18 17 17 17 16 16 16 15 15 15 15 15 15 15 15 15 14 14 14 14 14 14 14 14 15
24 24 23 23 22 22 23 24 24 25 25 25 25 25 24 23 23 23 22 21 20 20 19 19 18 18 17 17 16 16 16 15 15 15 15 15 14 14 14 14 14 14 13 13 13 13 13 14 14
22 22 23 23 22 22 22 23 25 24 24 24 25 24 24 23 23 23 22 21 21 20 20 19 19 18 17 17 16 16 16 15 15 15 15 15 14 14 14 14 14 13 13 13 13 13 13 13 13
21 22 22 21 21 21 20 22 24 24 24 24 24 23 23 22 22 22 22 21 21 21 20 20 19 18 18 17 16 16 16 16 15 15 15 15 14 14 14 14 14 13 13 13 13 13 13 13 13
Wind_Speed
3 3 3 3 2 6 10 6 4 4 4 5 4 4 5 6 4 3 5 9 10 13 14 15 13 12 12 12 12 13 13 13 13 12 12 11 11 12 12 12 11 10 9 9 9 9 9 9 9
4 3 3 2 3 8 8 4 4 4 5 4 3 3 4 6 5 6 8 8 11 12 13 14 14 12 12 11 12 12 13 12 12 12 12 11 11 12 12 12 11 11 10 9 9 9 9 9 10
3 3 2 2 4 7 7 4 3 4 4 1 2 4 4 4 4 5 8 11 11 12 12 12 13 12 11 11 11 12 12 12 11 12 12 11 11 12 12 12 12 11 10 8 8 7 8 9 10
3 3 2 3 7 6 4 4 2 5 3 1 1 3 4 4 3 6 11 11 11 11 11 12 12 12 11 11 11 11 11 12 12 13 12 11 11 12 12 12 11 11 9 8 7 6 7 9 10
2 2 3 5 6 5 3 2 3 4 2 2 1 3 4 4 5 8 11 10 10 11 10 11 11 11 11 11 11 11 12 13 13 13 12 11 12 12 12 12 11 10 9 8 7 6 7 9 10
2 2 4 6 5 4 4 3 4 3 2 3 2 3 4 6 7 9 10 9 9 9 9 11 11 10 10 11 11 12 13 14 14 13 12 11 12 12 11 12 11 10 9 9 7 7 8 9 9
2 2 3 6 6 5 3 3 3 2 2 2 2 3 5 7 8 10 9 8 8 8 8 8 12 12 11 10 12 13 14 14 14 13 12 11 11 12 12 12 11 10 10 9 9 9 9 9 9
2 2 4 6 7 5 4 3 1 1 1 3 3 1 4 9 11 10 9 8 8 8 8 7 9 10 11 11 12 13 14 14 14 13 12 12 12 12 12 12 11 11 10 10 10 10 10 10 9
2 4 5 6 7 4 5 4 4 1 2 3 3 2 5 14 13 11 10 9 8 7 7 8 8 8 9 10 12 13 14 14 14 13 12 12 11 12 11 12 12 11 10 10 10 10 10 8 9
3 4 3 4 5 4 5 3 4 4 2 4 6 5 8 14 14 13 12 11 11 10 9 8 8 9 10 9 11 11 12 13 12 12 12 10 9 9 10 13 11 11 10 10 9 9 7 3 5
4 4 2 4 5 4 5 4 4 2 1 3 7 10 12 15 14 13 13 11 11 11 10 9 9 9 8 8 9 8 9 10 10 11 11 9 9 9 9 10 12 11 10 9 9 8 4 5 6
4 4 4 3 4 5 5 4 4 4 1 3 6 10 14 16 16 15 13 11 11 11 11 10 10 10 9 8 7 7 7 8 8 10 11 9 7 7 8 7 9 9 7 6 6 4 5 5 6
8 4 4 4 5 6 5 5 4 5 4 5 7 10 13 14 14 14 12 12 12 12 12 11 11 10 10 8 7 7 7 7 8 8 9 9 7 7 8 8 7 8 7 7 5 5 6 5 6
4 5 6 5 7 7 7 7 6 7 6 8 10 12 13 13 13 12 13 13 13 13 13 12 13 12 11 10 9 8 8 8 8 8 9 10 8 8 8 8 8 8 7 6 6 7 6 5 6
4 7 8 7 8 5 6 10 11 7 7 10 11 12 12 12 13 13 12 12 13 13 13 13 13 13 13 12 10 8 8 9 8 8 10 11 10 9 9 8 9 9 9 8 6 8 6 6 6
6 8 10 7 6 5 7 11 4 3 8 11 11 11 12 13 14 13 11 11 11 11 13 13 12 14 14 12 10 8 8 9 8 10 10 12 12 11 9 8 9 10 9 7 7 7 7 6 6
8 10 10 7 5 4 7 9 4 2 6 9 11 12 13 13 13 12 10 11 11 11 12 13 14 14 14 13 10 9 8 8 8 9 10 12 13 13 11 9 9 11 8 7 8 8 7 7 6
8 10 9 9 3 5 8 10 10 7 7 10 12 13 14 13 12 9 8 8 9 10 11 12 12 13 13 11 9 8 8 8 8 8 10 13 12 13 11 9 11 11 9 8 8 9 7 7 7
7 8 10 8 4 7 11 12 11 11 10 12 13 14 15 13 9 7 6 6 6 6 7 8 9 11 10 10 10 9 8 9 8 8 11 12 13 13 11 9 11 10 10 11 11 9 10 8 8
6 9 10 8 5 8 12 15 14 14 14 13 12 12 13 12 10 8 7 5 4 3 2 4 6 8 10 9 9 7 7 8 8 8 9 12 14 14 12 13 11 11 9 11 12 11 9 8 9
8 8 9 10 11 9 11 17 14 12 12 11 11 10 9 10 11 10 8 6 4 3 3 3 4 7 9 9 7 5 5 4 6 8 9 11 13 14 13 13 12 11 11 9 12 13 13 10 11
10 7 7 9 10 9 7 13 13 13 14 13 12 10 9 9 11 10 9 7 5 4 4 4 5 6 8 9 9 9 7 7 8 7 8 10 12 13 14 13 12 11 9 9 10 12 12 11 11
5 3 5 7 9 12 12 12 11 9 11 8 6 6 8 10 12 11 9 7 5 5 5 5 6 6 7 7 7 7 6 5 5 5 7 8 9 11 13 13 12 12 10 10 10 10 12 11 11
5 3 6 8 8 11 10 10 8 4 5 7 6 2 7 11 12 11 9 7 6 6 5 5 6 6 6 6 6 6 5 5 6 6 6 6 6 7 10 11 11 12 10 9 8 9 11 11 12
8 7 4 5 6 6 2 6 6 5 6 8 8 2 8 12 12 11 10 9 8 7 7 6 6 6 6 6 6 6 5 6 7 7 7 6 6 6 9 9 10 11 11 9 8 8 10 11 12
8 11 8 5 5 3 4 5 4 5 6 6 4 3 8 11 11 10 10 9 9 9 8 8 8 7 7 6 5 5 5 5 5 6 5 6 5 6 7 9 9 10 10 10 9 6 8 9 11
6 9 8 11 12 9 7 5 7 4 2 3 2 3 8 10 10 10 10 10 10 10 10 10 9 8 7 7 6 5 5 5 5 5 5 5 5 4 7 8 9 10 10 10 10 7 7 7 8
7 5 5 7 7 10 8 8 5 2 5 5 3 1 3 6 8 10 10 10 11 11 11 11 10 9 8 7 6 5 5 5 5 4 5 5 5 6 8 8 9 10 10 10 9 7 6 6 6
5 6 7 7 6 7 6 2 2 4 6 7 7 6 4 4 6 8 9 10 11 11 11 12 11 10 9 9 8 7 6 6 6 5 5 5 6 7 8 9 10 10 10 10 9 8 8 6 6
5 5 7 8 8 6 6 4 4 4 6 9 11 10 8 7 6 6 7 9 11 12 12 13 12 12 10 9 9 8 6 6 7 7 6 6 7 7 8 9 10 10 10 10 10 9 9 7 6
Wind_Direction
264 293 268 250 174 92 79 81 79 79 73 68 59 46 40 31 4 35 111 146 147 150 155 159 163 158 155 155 160 162 161 157 151 147 142 137 136 132 126 120 112 104 96 89 81 74 71 69 72
315 292 259 241 127 97 84 84 85 71 91 104 81 42 44 62 55 100 135 145 153 153 158 160 160 163 159 159 164 165 164 161 156 148 141 139 137 133 126 120 113 106 101 93 86 82 79 78 76
278 276 271 164 103 84 89 83 89 110 126 89 61 41 34 53 91 124 135 146 154 153 159 153 163 165 164 164 167 165 163 159 153 145 141 140 136 131 126 121 112 106 102 97 91 86 84 84 81
271 235 229 164 114 97 87 92 133 144 152 97 32 82 74 63 86 120 138 148 148 152 158 153 168 166 168 169 167 161 158 154 149 144 143 141 136 130 126 120 112 107 105 104 99 92 92 91 86
264 242 175 147 127 118 112 92 152 153 126 112 84 76 93 92 98 126 146 151 154 155 158 154 166 168 171 171 165 159 156 152 148 146 145 141 135 131 126 118 112 110 111 110 101 95 101 98 88
250 233 192 162 141 133 124 131 157 161 129 139 161 100 98 116 133 141 148 159 154 154 159 153 159 171 175 172 163 158 155 152 149 148 145 139 134 132 125 115 113 115 115 109 99 99 104 99 86
282 229 201 172 160 159 137 142 161 162 165 150 169 123 124 139 141 149 151 152 149 153 162 163 161 168 174 171 163 158 156 152 151 150 147 141 136 132 123 115 117 121 117 108 102 104 106 94 81
307 228 187 188 182 172 151 164 169 231 123 118 189 139 130 153 151 153 152 153 155 160 164 167 159 165 166 167 164 161 157 155 153 151 147 139 135 134 129 128 124 125 115 105 105 105 100 88 77
273 236 215 199 195 180 167 174 151 170 160 165 187 67 93 141 154 159 161 166 166 169 171 172 165 165 162 166 161 164 161 158 157 154 150 156 156 148 152 122 130 125 112 105 109 110 104 104 97
242 245 223 190 201 184 174 177 157 180 192 185 176 150 138 156 168 175 178 178 178 179 179 177 175 169 171 167 161 171 167 165 172 163 161 170 154 150 134 126 136 127 118 114 114 122 144 188 96
232 252 202 200 206 202 188 177 177 214 207 183 180 176 169 176 184 189 190 186 182 180 179 184 181 178 175 171 168 170 168 173 178 168 164 170 155 154 151 152 150 147 154 134 137 162 105 71 64
241 240 237 212 188 205 199 184 190 225 237 159 170 170 178 189 195 199 197 192 187 185 185 186 187 180 186 180 174 178 174 176 178 176 175 172 170 172 166 168 160 161 159 142 145 123 100 74 77
239 243 232 237 223 223 217 211 226 230 206 186 179 183 191 198 201 203 202 198 197 193 193 193 192 189 188 184 181 188 186 184 182 181 186 182 178 183 174 173 168 172 163 161 151 146 111 92 76
269 264 261 252 230 225 231 233 233 234 201 195 195 198 203 205 208 205 203 205 205 203 200 197 196 195 193 190 191 192 188 186 191 190 198 193 187 187 180 180 173 175 175 164 163 144 130 108 90
258 258 247 235 231 229 238 246 240 235 206 208 208 208 212 215 215 218 214 214 214 211 209 204 201 199 199 199 198 195 195 192 192 191 203 202 193 191 187 185 179 177 176 169 162 145 136 119 116
235 240 243 222 222 212 229 252 237 189 216 223 222 217 217 223 227 226 226 225 225 221 219 211 203 204 202 200 198 199 203 200 193 192 201 206 200 196 188 188 187 179 178 174 162 165 155 144 141
229 241 243 227 207 213 232 253 229 204 239 237 231 228 224 228 231 230 230 233 233 231 229 223 214 210 206 199 195 201 207 206 202 196 195 207 207 199 191 195 192 185 183 182 177 176 170 160 151
251 252 248 240 215 251 251 259 268 265 251 257 247 235 228 229 230 225 223 232 236 236 234 232 226 218 207 195 196 198 212 214 207 202 199 202 208 206 196 197 202 192 186 188 187 182 181 167 169
296 272 261 261 289 281 268 270 271 274 261 258 254 243 232 227 217 203 205 212 221 226 231 227 223 214 200 189 191 197 204 212 211 208 204 200 205 208 203 207 209 200 197 196 194 184 182 180 177
282 276 273 275 290 290 281 277 275 271 267 262 262 251 234 221 204 195 188 179 178 174 194 205 202 197 192 192 194 203 203 213 211 208 208 203 202 204 206 208 210 210 209 202 197 188 186 186 190
263 266 279 292 302 281 288 278 267 266 261 256 253 253 243 218 207 189 178 166 156 145 143 159 173 179 187 184 181 180 184 193 198 206 207 206 204 204 207 213 213 217 213 206 200 194 190 190 202
265 270 276 286 290 282 282 286 280 276 273 264 257 243 230 207 195 180 173 164 153 133 132 144 156 168 177 181 190 196 207 214 218 215 208 206 207 206 208 212 212 217 217 211 204 200 199 196 200
251 299 273 269 275 279 266 273 280 274 273 279 284 248 218 194 183 174 169 160 147 134 135 139 147 158 170 187 193 206 218 224 215 212 213 210 206 209 208 211 209 209 209 207 203 201 204 203 205
187 212 253 246 252 260 258 259 281 280 307 318 320 261 193 180 175 170 164 164 155 145 143 146 150 151 163 180 192 205 203 205 205 210 212 209 203 205 208 206 204 200 194 191 192 200 207 213 213
215 236 250 236 227 250 230 256 273 320 325 314 312 264 175 174 174 175 176 179 177 171 165 162 160 161 170 184 195 198 199 212 216 216 215 214 207 206 206 201 201 194 186 175 174 197 205 216 220
225 238 244 262 260 253 216 250 269 319 316 314 307 191 174 179 184 188 191 190 189 185 180 177 175 173 176 188 195 201 195 213 226 223 223 221 217 211 201 197 193 182 174 165 168 186 203 214 218
243 230 253 262 268 271 259 255 277 283 348 16 59 154 185 195 200 203 203 200 198 195 191 188 184 182 184 190 191 201 203 213 223 220 217 220 216 197 185 183 175 168 164 161 162 173 190 205 216
266 274 233 240 255 255 249 247 250 326 27 34 41 89 205 218 220 217 214 210 206 201 195 191 190 187 188 191 191 191 205 206 215 213 207 209 200 185 175 176 171 166 162 159 157 161 171 187 205
240 232 241 248 258 264 260 212 69 35 24 20 14 2 325 279 256 237 226 219 210 202 195 191 191 192 190 191 190 194 197 199 200 206 202 201 196 190 187 187 182 178 173 169 164 161 164 177 195
290 285 261 254 248 250 267 262 62 21 1 355 345 339 325 307 290 266 247 230 215 207 199 195 194 193 192 192 193 198 195 196 205 205 202 201 198 200 201 195 190 188 184 177 173 171 172 178 199
Height
1503 1503 1503 1504 1502 1503 1509 1507 1503 1503 1502 1505 1506 1504 1504 1505 1507 1514 1515 1513 1515 1517 1519 1520 1522 1524 1525 1526 1528 1529 1530 1531 1532 1533 1534 1535 1535 1536 1536 1537 1537 1537 1537 1537 1538 1538 1538 1538 1537
1504 1503 1505 1504 1501 1511 1513 1505 1504 1503 1505 1507 1507 1507 1505 1508 1512 1514 1513 1514 1516 1518 1519 1521 1522 1524 1525 1526 1528 1529 1530 1532 1533 1534 1535 1535 1536 1537 1537 1538 1538 1538 1538 1539 1539 1539 1540 1539 1539
1504 1504 1506 1501 1503 1508 1510 1504 1503 1505 1508 1508 1507 1508 1508 1511 1514 1514 1515 1514 1517 1518 1520 1521 1522 1524 1525 1527 1528 1529 1531 1532 1533 1534 1535 1536 1537 1538 1538 1538 1539 1539 1539 1540 1540 1541 1541 1541 1540
1505 1506 1505 1501 1507 1505 1503 1503 1504 1506 1508 1509 1508 1509 1511 1514 1515 1515 1515 1516 1518 1519 1520 1521 1522 1524 1525 1527 1528 1530 1531 1533 1534 1535 1536 1537 1538 1539 1539 1539 1539 1540 1540 1541 1541 1542 1542 1542 1542
1505 1505 1502 1504 1506 1503 1502 1504 1505 1505 1506 1508 1509 1508 1512 1515 1514 1515 1516 1517 1519 1520 1521 1522 1522 1524 1526 1527 1529 1530 1531 1533 1534 1535 1536 1537 1539 1539 1540 1540 1540 1541 1541 1542 1543 1543 1543 1543 1543
1507 1502 1503 1508 1506 1503 1502 1504 1505 1504 1506 1508 1509 1509 1513 1515 1515 1516 1517 1519 1520 1521 1522 1523 1523 1524 1526 1527 1529 1530 1531 1533 1534 1536 1537 1538 1539 1540 1541 1541 1541 1542 1543 1543 1544 1545 1545 1544 1544
1506 1501 1502 1503 1507 1504 1503 1505 1504 1504 1505 1507 1509 1509 1513 1515 1516 1517 1518 1520 1521 1522 1523 1524 1524 1524 1525 1527 1529 1530 1532 1533 1535 1536 1538 1539 1540 1541 1541 1542 1543 1543 1544 1544 1545 1546 1546 1546 1545
1507 1503 1503 1502 1506 1504 1503 1505 1505 1505 1505 1509 1510 1508 1511 1515 1515 1517 1519 1520 1521 1522 1523 1524 1525 1526 1527 1528 1529 1531 1532 1534 1535 1537 1538 1540 1541 1541 1542 1543 1544 1545 1545 1546 1547 1547 1547 1547 1546
1507 1505 1504 1502 1504 1502 1503 1504 1506 1507 1507 1509 1510 1510 1512 1513 1515 1517 1519 1520 1521 1522 1523 1524 1526 1526 1527 1528 1529 1531 1532 1534 1536 1537 1539 1540 1542 1543 1544 1544 1545 1546 1547 1547 1548 1549 1549 1548 1547
1507 1504 1501 1500 1500 1500 1502 1503 1505 1506 1505 1507 1509 1511 1511 1513 1515 1516 1518 1519 1520 1522 1523 1524 1526 1526 1528 1529 1529 1531 1533 1534 1536 1538 1539 1542 1544 1545 1546 1544 1546 1547 1548 1549 1550 1550 1550 1551 1551
1505 1502 1501 1501 1502 1502 1502 1503 1504 1504 1503 1504 1506 1509 1511 1512 1514 1515 1517 1519 1520 1521 1522 1523 1525 1526 1528 1529 1530 1531 1533 1534 1537 1539 1540 1542 1544 1545 1546 1547 1547 1549 1550 1552 1551 1553 1554 1553 1551
1504 1502 1502 1501 1502 1502 1501 1502 1503 1503 1503 1504 1505 1507 1509 1510 1512 1514 1516 1518 1519 1520 1521 1523 1524 1526 1527 1529 1530 1531 1533 1534 1536 1538 1540 1542 1543 1545 1547 1548 1549 1550 1552 1553 1554 1554 1554 1554 1554
1502 1500 1502 1502 1502 1502 1501 1501 1502 1502 1503 1503 1504 1506 1507 1509 1511 1513 1515 1516 1518 1519 1520 1522 1523 1525 1527 1528 1529 1530 1532 1534 1535 1536 1539 1541 1542 1544 1546 1548 1548 1550 1552 1553 1554 1555 1555 1556 1555
1502 1502 1501 1500 1500 1499 1499 1499 1501 1499 1501 1502 1503 1504 1505 1507 1509 1510 1512 1514 1516 1517 1519 1520 1521 1523 1524 1526 1527 1529 1531 1531 1534 1535 1537 1540 1542 1543 1545 1547 1547 1550 1552 1554 1555 1555 1556 1556 1556
1503 1501 1498 1497 1497 1497 1498 1497 1495 1496 1499 1499 1500 1501 1503 1505 1506 1508 1510 1512 1514 1515 1517 1518 1519 1520 1522 1524 1526 1528 1529 1530 1531 1533 1535 1538 1540 1542 1543 1546 1547 1549 1551 1553 1554 1555 1556 1556 1557
1500 1499 1499 1494 1495 1496 1499 1497 1491 1495 1496 1496 1497 1498 1500 1502 1503 1505 1507 1509 1511 1512 1514 1515 1516 1517 1519 1521 1523 1525 1527 1528 1529 1531 1532 1535 1538 1541 1542 1544 1546 1548 1550 1552 1553 1555 1556 1557 1557
1498 1498 1496 1494 1493 1493 1494 1494 1490 1494 1494 1494 1494 1495 1497 1498 1500 1501 1503 1505 1507 1508 1510 1512 1513 1514 1516 1517 1519 1521 1524 1525 1527 1528 1529 1532 1536 1538 1540 1542 1545 1547 1548 1550 1552 1554 1555 1556 1557
1499 1495 1494 1494 1491 1493 1493 1491 1488 1489 1492 1491 1490 1491 1492 1494 1496 1498 1498 1500 1502 1504 1505 1507 1509 1510 1511 1512 1515 1517 1519 1521 1523 1525 1526 1529 1532 1535 1538 1539 1542 1544 1545 1547 1549 1551 1553 1555 1556
1500 1498 1497 1493 1492 1493 1491 1488 1486 1485 1487 1487 1486 1486 1487 1489 1492 1493 1494 1496 1498 1499 1501 1502 1503 1505 1506 1507 1509 1512 1514 1517 1519 1521 1523 1525 1527 1531 1534 1536 1539 1540 1542 1544 1547 1549 1551 1553 1555
1504 1504 1499 1494 1493 1493 1489 1486 1482 1481 1481 1481 1481 1481 1482 1485 1488 1490 1491 1493 1495 1496 1498 1499 1499 1500 1501 1502 1505 1508 1511 1513 1515 1516 1519 1521 1523 1525 1528 1531 1534 1536 1538 1541 1543 1545 1548 1550 1552
1508 1508 1506 1504 1497 1492 1492 1487 1478 1475 1476 1476 1478 1479 1480 1482 1485 1488 1490 1492 1493 1494 1495 1496 1497 1497 1498 1499 1501 1504 1506 1509 1510 1512 1514 1516 1518 1521 1523 1527 1530 1532 1535 1537 1539 1542 1544 1546 1549
1511 1505 1506 1507 1506 1498 1495 1496 1478 1472 1470 1470 1472 1474 1476 1479 1482 1485 1488 1491 1492 1493 1493 1494 1494 1495 1496 1497 1499 1501 1503 1505 1507 1508 1509 1511 1514 1516 1518 1521 1524 1527 1530 1533 1536 1538 1540 1543 1546
1507 1505 1506 1507 1507 1503 1493 1495 1478 1468 1470 1467 1468 1470 1473 1476 1479 1483 1486 1489 1491 1491 1492 1493 1493 1494 1495 1496 1497 1499 1501 1503 1503 1504 1505 1507 1508 1511 1513 1516 1519 1522 1525 1528 1531 1533 1536 1539 1542
1501 1505 1506 1504 1502 1505 1489 1490 1481 1466 1467 1466 1467 1468 1470 1474 1478 1482 1485 1487 1489 1490 1491 1492 1492 1493 1494 1494 1496 1498 1499 1500 1500 1501 1502 1503 1504 1506 1508 1510 1513 1516 1518 1522 1525 1529 1532 1535 1538
1497 1502 1509 1508 1504 1497 1484 1487 1479 1465 1465 1467 1467 1467 1469 1473 1477 1480 1483 1486 1487 1488 1490 1491 1491 1492 1493 1494 1495 1497 1497 1498 1499 1499 1499 1500 1501 1502 1504 1506 1508 1510 1513 1516 1520 1524 1527 1530 1534
1490 1493 1503 1507 1502 1492 1486 1485 1471 1464 1466 1467 1466 1467 1470 1473 1476 1479 1482 1484 1486 1487 1488 1489 1490 1491 1491 1492 1494 1495 1495 1495 1496 1497 1497 1498 1498 1499 1500 1501 1503 1506 1508 1511 1514 1518 1523 1526 1529
1485 1485 1481 1488 1487 1494 1484 1475 1468 1463 1464 1465 1466 1468 1470 1473 1476 1478 1481 1482 1484 1485 1486 1487 1488 1489 1490 1491 1492 1493 1493 1494 1494 1495 1495 1495 1496 1497 1497 1499 1500 1502 1505 1507 1510 1514 1518 1522 1525
1483 1479 1483 1487 1495 1495 1484 1479 1474 1466 1466 1465 1466 1468 1470 1473 1474 1476 1478 1480 1481 1483 1484 1485 1486 1487 1488 1489 1490 1490 1491 1492 1492 1493 1493 1494 1495 1495 1496 1497 1499 1501 1503 1505 1507 1510 1514 1518 1521
1484 1485 1483 1481 1483 1491 1492 1482 1466 1468 1468 1468 1468 1469 1471 1472 1473 1474 1476 1477 1478 1479 1480 1482 1483 1485 1486 1487 1488 1488 1490 1490 1491 1492 1492 1493 1494 1495 1496 1497 1498 1500 1502 1504 1506 1508 1511 1514 1518
1486 1484 1484 1491 1490 1488 1493 1485 1466 1468 1469 1470 1470 1470 1470 1470 1470 1471 1472 1473 1474 1475 1477 1479 1480 1482 1483 1484 1485 1487 1488 1488 1489 1490 1491 1492 1493 1494 1496 1497 1498 1499 1501 1503 1505 1507 1509 1512 1515